When you browse on this site, cookies collect data to enhance your experience and personalize the content and advertising you see.
Visit our Privacy Policy to learn more. By continuing to use the site, you agree to this use of cookies and data.
  • In Lithuania
  • List of Countries
  • For 7 days
  • Water Temperature
  • Satellite Maps
  • Weather Map
  • Weather Widgets
  • user-avatar
    Login

    Hourly Weather Liverpool

    Today, 25 June, Tuesday

    Time Temperature Precipitation Wind Pressure Humidity
    00:00 +15°C° 0 mm 2 mps 757 mmHg 65%
    01:00 +14°C° 0 mm 2 mps 757 mmHg 64%
    02:00 +13°C° 0 mm 3 mps 757 mmHg 63%
    03:00 +12°C° 0 mm 3 mps 758 mmHg 69%
    04:00 +11°C° 0 mm 3 mps 758 mmHg 75%
    05:00 +10°C° 0 mm 3 mps 758 mmHg 80%
    06:00 +13°C° 0 mm 2 mps 759 mmHg 74%
    07:00 +15°C° 0 mm 2 mps 759 mmHg 68%
    08:00 +19°C° 0 mm 1 mps 760 mmHg 61%
    09:00 +20°C° 0 mm 1 mps 760 mmHg 57%
    10:00 +21°C° 0 mm 2 mps 760 mmHg 53%
    11:00 +24°C° 0 mm 2 mps 760 mmHg 48%
    12:00 +23°C° 0 mm 2 mps 760 mmHg 50%
    13:00 +21°C° 0 mm 3 mps 760 mmHg 52%
    14:00 +20°C° 0 mm 4 mps 760 mmHg 54%
    15:00 +19°C° 0 mm 4 mps 760 mmHg 55%
    16:00 +19°C° 0 mm 4 mps 761 mmHg 57%
    17:00 +18°C° 0 mm 4 mps 761 mmHg 59%
    18:00 +17°C° 0 mm 4 mps 761 mmHg 63%
    19:00 +14°C° 0 mm 3 mps 761 mmHg 68%
    20:00 +13°C° 0 mm 3 mps 762 mmHg 72%
    21:00 +13°C° 0 mm 3 mps 762 mmHg 72%
    22:00 +13°C° 0 mm 2 mps 762 mmHg 72%
    23:00 +13°C° 0 mm 2 mps 762 mmHg 72%

    Tomorrow, 26 June, Wednesday

    Time Temperature Precipitation Wind Pressure Humidity
    00:00 +13°C° 0 mm 2 mps 762 mmHg 75%
    01:00 +12°C° 0 mm 2 mps 762 mmHg 77%
    02:00 +12°C° 0 mm 2 mps 762 mmHg 79%
    03:00 +12°C° 0 mm 3 mps 762 mmHg 79%
    04:00 +12°C° 0 mm 3 mps 762 mmHg 78%
    05:00 +12°C° 0 mm 3 mps 763 mmHg 77%
    06:00 +13°C° 0 mm 3 mps 763 mmHg 76%
    07:00 +13°C° 0 mm 3 mps 763 mmHg 76%
    08:00 +14°C° 0 mm 3 mps 764 mmHg 75%
    09:00 +14°C° 0 mm 4 mps 764 mmHg 74%
    10:00 +15°C° 0 mm 4 mps 764 mmHg 72%
    11:00 +15°C° 0 mm 4 mps 763 mmHg 71%
    12:00 +15°C° 0.1 mm 4 mps 764 mmHg 74%
    13:00 +14°C° 0.1 mm 4 mps 764 mmHg 77%
    14:00 +14°C° 0.1 mm 4 mps 764 mmHg 80%
    15:00 +13°C° 0.6 mm 5 mps 764 mmHg 85%
    16:00 +13°C° 0.6 mm 5 mps 763 mmHg 90%
    17:00 +12°C° 0.6 mm 5 mps 763 mmHg 95%
    18:00 +12°C° 0.3 mm 5 mps 763 mmHg 95%
    19:00 +12°C° 0.3 mm 5 mps 763 mmHg 96%
    20:00 +11°C° 0.3 mm 6 mps 763 mmHg 96%
    21:00 +13°C° 0.8 mm 6 mps 763 mmHg 97%
    22:00 +13°C° 0.8 mm 6 mps 763 mmHg 98%
    23:00 +14°C° 0.8 mm 6 mps 763 mmHg 98%

    Day after tomorrow, 27 June, Thursday

    Time Temperature Precipitation Wind Pressure Humidity
    00:00 +14°C° 0.8 mm 6 mps 762 mmHg 98%
    01:00 +14°C° 0.8 mm 6 mps 762 mmHg 98%
    02:00 +14°C° 0.8 mm 6 mps 762 mmHg 99%
    03:00 +14°C° 0.3 mm 6 mps 762 mmHg 99%
    04:00 +14°C° 0.3 mm 6 mps 762 mmHg 99%
    05:00 +14°C° 0.3 mm 5 mps 762 mmHg 99%
    06:00 +14°C° 0.1 mm 5 mps 762 mmHg 98%
    07:00 +14°C° 0.1 mm 5 mps 762 mmHg 98%
    08:00 +15°C° 0.1 mm 4 mps 762 mmHg 98%
    09:00 +15°C° 0 mm 4 mps 762 mmHg 98%
    10:00 +15°C° 0 mm 4 mps 762 mmHg 97%
    11:00 +17°C° 0 mm 3 mps 762 mmHg 97%
    12:00 +17°C° 0 mm 3 mps 762 mmHg 94%
    13:00 +18°C° 0 mm 2 mps 762 mmHg 91%
    14:00 +20°C° 0 mm 1 mps 762 mmHg 88%
    15:00 +21°C° 0 mm 1 mps 762 mmHg 86%
    16:00 +21°C° 0 mm 1 mps 762 mmHg 83%
    17:00 +22°C° 0 mm 1 mps 762 mmHg 81%
    18:00 +21°C° 0 mm 1 mps 762 mmHg 86%
    19:00 +19°C° 0 mm 1 mps 762 mmHg 92%
    20:00 +18°C° 0 mm 1 mps 762 mmHg 97%
    21:00 +18°C° 0 mm 1 mps 762 mmHg 98%
    22:00 +18°C° 0 mm 1 mps 762 mmHg 98%
    23:00 +16°C° 0 mm 1 mps 762 mmHg 98%

    28 June, Friday

    Time Temperature Precipitation Wind Pressure Humidity
    00:00 +16°C° 0 mm 1 mps 762 mmHg 98%
    01:00 +16°C° 0 mm 1 mps 762 mmHg 98%
    02:00 +16°C° 0 mm 1 mps 762 mmHg 98%
    03:00 +16°C° 0 mm 1 mps 762 mmHg 98%
    04:00 +18°C° 0 mm 1 mps 762 mmHg 98%
    05:00 +17°C° 0 mm 2 mps 762 mmHg 97%
    06:00 +17°C° 0 mm 2 mps 762 mmHg 94%
    07:00 +18°C° 0 mm 2 mps 762 mmHg 90%
    08:00 +19°C° 0 mm 2 mps 762 mmHg 86%
    09:00 +21°C° 0 mm 2 mps 762 mmHg 78%
    10:00 +24°C° 0 mm 2 mps 762 mmHg 70%
    11:00 +26°C° 0 mm 2 mps 762 mmHg 62%
    12:00 +25°C° 0.7 mm 3 mps 762 mmHg 69%
    13:00 +25°C° 0.7 mm 3 mps 762 mmHg 77%
    14:00 +23°C° 0.7 mm 4 mps 761 mmHg 84%
    15:00 +24°C° 0.4 mm 3 mps 761 mmHg 82%
    16:00 +25°C° 0.4 mm 3 mps 761 mmHg 81%
    17:00 +25°C° 0.4 mm 3 mps 761 mmHg 79%
    18:00 +22°C° 0.1 mm 3 mps 761 mmHg 83%
    19:00 +21°C° 0.1 mm 2 mps 761 mmHg 87%
    20:00 +20°C° 0.1 mm 2 mps 761 mmHg 90%
    21:00 +19°C° 0 mm 2 mps 761 mmHg 92%
    22:00 +18°C° 0 mm 2 mps 761 mmHg 94%
    23:00 +17°C° 0 mm 2 mps 761 mmHg 96%

    29 June, Saturday

    Time Temperature Precipitation Wind Pressure Humidity
    00:00 +17°C° 0 mm 2 mps 761 mmHg 96%
    01:00 +16°C° 0 mm 2 mps 760 mmHg 97%
    02:00 +16°C° 0 mm 2 mps 760 mmHg 97%
    03:00 +16°C° 0 mm 1 mps 760 mmHg 97%
    04:00 +15°C° 0 mm 1 mps 760 mmHg 96%
    05:00 +14°C° 0 mm 0 mps 759 mmHg 96%
    06:00 +18°C° 0 mm 1 mps 759 mmHg 92%
    07:00 +19°C° 0 mm 1 mps 759 mmHg 87%
    08:00 +20°C° 0 mm 2 mps 759 mmHg 83%
    09:00 +20°C° 0.1 mm 2 mps 759 mmHg 84%
    10:00 +19°C° 0.1 mm 2 mps 759 mmHg 85%
    11:00 +19°C° 0.1 mm 2 mps 758 mmHg 86%
    12:00 +18°C° 0.8 mm 3 mps 758 mmHg 89%
    13:00 +17°C° 0.8 mm 4 mps 758 mmHg 93%
    14:00 +15°C° 0.8 mm 5 mps 757 mmHg 97%
    15:00 +15°C° 0.4 mm 5 mps 757 mmHg 97%
    16:00 +16°C° 0.4 mm 5 mps 756 mmHg 97%
    17:00 +17°C° 0.4 mm 4 mps 756 mmHg 97%
    18:00 +15°C° 0.3 mm 4 mps 755 mmHg 97%
    19:00 +15°C° 0.3 mm 4 mps 755 mmHg 96%
    20:00 +14°C° 0.3 mm 4 mps 754 mmHg 96%
    21:00 +14°C° 0 mm 4 mps 754 mmHg 96%
    22:00 +13°C° 0 mm 3 mps 754 mmHg 97%
    23:00 +13°C° 0 mm 3 mps 754 mmHg 97%

    30 June, Sunday

    Time Temperature Precipitation Wind Pressure Humidity
    00:00 +14°C° 0 mm 2 mps 753 mmHg 98%
    01:00 +14°C° 0 mm 1 mps 752 mmHg 98%
    02:00 +14°C° 0 mm 1 mps 752 mmHg 99%
    03:00 +15°C° 0 mm 1 mps 752 mmHg 99%
    04:00 +15°C° 0 mm 1 mps 751 mmHg 98%
    05:00 +15°C° 0 mm 0 mps 751 mmHg 98%
    06:00 +15°C° 0 mm 0 mps 751 mmHg 98%
    07:00 +16°C° 0 mm 0 mps 750 mmHg 97%
    08:00 +16°C° 0 mm 0 mps 750 mmHg 97%
    09:00 +17°C° 0.1 mm 0 mps 750 mmHg 96%
    10:00 +18°C° 0.1 mm 0 mps 750 mmHg 94%
    11:00 +18°C° 0.1 mm 0 mps 750 mmHg 93%
    12:00 +20°C° 0.1 mm 1 mps 749 mmHg 93%
    13:00 +20°C° 0.1 mm 1 mps 749 mmHg 94%
    14:00 +20°C° 0.1 mm 1 mps 749 mmHg 95%
    15:00 +20°C° 0.3 mm 1 mps 749 mmHg 94%
    16:00 +20°C° 0.3 mm 1 mps 748 mmHg 94%
    17:00 +20°C° 0.3 mm 1 mps 748 mmHg 93%
    18:00 +20°C° 0.9 mm 1 mps 748 mmHg 95%
    19:00 +19°C° 0.9 mm 1 mps 748 mmHg 96%
    20:00 +17°C° 0.9 mm 2 mps 748 mmHg 98%
    21:00 +16°C° 0.3 mm 1 mps 748 mmHg 98%
    22:00 +16°C° 0.3 mm 1 mps 748 mmHg 98%
    23:00 +15°C° 0.3 mm 1 mps 749 mmHg 98%
    Show more